Regional Weather Roundup
Issued by NWS

Home | Current Version | Previous Version | Graphics & Text | Print | Product List | Glossary On
Versions: 1 2 3 4 5 6 7 8 9 10 11 12 13 14 15 16 17 18 19 20 21 22 23 24 25 26 27 28 29 30 31 32 33 34 35 36 37 38 39 40 41 42 43 44 45 46 47 48 49 50
000
ASUS43 KFSD 250610
RWRSD

WEATHER ROUNDUP FOR SOUTH DAKOTA
NATIONAL WEATHER SERVICE SIOUX FALLS SD
100 AM CDT MON MAY 25 2015

NOTE: "FAIR" INDICATES FEW OR NO CLOUDS BELOW 12,000 FEET WITH NO
SIGNIFICANT WEATHER AND/OR OBSTRUCTIONS TO VISIBILITY.


SDZ001>005-009-010-012>017-250700-
NORTHWEST AND NORTH CENTRAL SOUTH DAKOTA

CITY           SKY/WX    TMP DP  RH WIND       PRES   REMARKS
BUFFALO          N/A     53  50  89 NE7       29.81F
FAITH            N/A     54  52  93 NE3       29.84F
MOBRIDGE       LGT RAIN  57  57 100 NE7       29.81F
$$

SDZ012>016-024>037-041>051-057-063-072>074-250700-
SOUTHWEST AND SOUTH CENTRAL SOUTH DAKOTA

CITY           SKY/WX    TMP DP  RH WIND       PRES   REMARKS
RAPID CTY ARPT MOCLDY    53  52  96 N13       29.85F
PIERRE         CLOUDY    57  56  96 E6        29.80S FOG
CUSTER         CLOUDY    47  44  90 NE7       29.89S
ELLSWORTH AFB  FOG       54  54 100 N8        29.86  VSB 1/2
PHILIP         CLOUDY    57  56  96 NE9       29.82F FOG
PINE RIDGE     CLOUDY    55  53  93 NE9       29.82F
SPEARFISH      CLOUDY    50  50 100 N5        29.89F FOG
WINNER         FOG       60  57  89 E3        29.80F VSB 1/2
$$

SDZ004>011-016>023-039-040-250700-
NORTHEAST SOUTH DAKOTA

CITY           SKY/WX    TMP DP  RH WIND       PRES   REMARKS
ABERDEEN       RAIN      57  56  96 N7        29.82F FOG
WATERTOWN      LGT RAIN  57  55  93 E5        29.79S FOG
BROOKINGS      CLOUDY    57  55  94 NE3       29.79S
SISSETON         N/A     58  58 100 NE8       29.79F
$$

SDZ017-020-022-023-036>040-048>070-250700-
SOUTHEAST SOUTH DAKOTA

CITY           SKY/WX    TMP DP  RH WIND       PRES   REMARKS
SIOUX FALLS    CLOUDY    59  58  96 N5        29.75F
HURON          CLOUDY    57  57 100 NE8       29.77F FOG
CHAMBERLAIN    CLOUDY    57  57  99 CALM      29.79F
MITCHELL       CLOUDY    59  59 100 NE3       29.77F
YANKTON        MOCLDY    59  57  94 W3        29.75F
$$

ABBREVIATIONS USED IN REMARKS
   TC - TEMPERATURE IN CELSIUS
  WCI - WIND CHILL INDEX
   HX - HEAT INDEX
  VSB - VISIBILITY




USA.gov is the U.S. government's official web portal to all federal, state and local government web resources and services.